{"data":{"norad_id":58220,"intl_designator":"2023-170Q","name":"STARLINK-30792","alt_names":[],"object_type":"PAYLOAD","status":"ACTIVE","operator":null,"country":"US","launch_date":"2023-11-03","launch_site_code":"AFETR","launch_vehicle":null,"mission":null,"orbit_class":"UNKNOWN","rcs_meters":null,"size_class":null,"mass_kg":null,"dimensions":null,"purposes":["comms"],"wikipedia_slug":null,"has_3d_model":false,"image_url":null,"decayed_at":null,"tle_current":{"epoch":"2026-09-20T04:36:32.372640Z","epoch_age_seconds":170297,"freshness":"FRESH","line1":"1 58220U 23170Q   26263.19204135  .00015235  00000+0  90379-3 0  9990","line2":"2 58220  42.9967 210.0411 0010092 123.0376 237.1440 15.11115652159643","mean_motion":15.11115652,"eccentricity":0.0010092,"inclination_deg":42.9967,"raan_deg":210.0411,"arg_perigee_deg":123.0376,"mean_anomaly_deg":237.144,"bstar":0.00090379,"rev_number":15964,"period_min":95.293831289096,"perigee_km":525.82184783906,"apogee_km":539.77087573649,"semimajor_km":6910.9333617878,"source":"CELESTRAK","updated_at":"2026-09-21T09:00:33.833929Z"}}}